Location: Harburg
(48.7667°N, 10.6667°E)
Time: 05:51:50
(UTC+00:00)

SL-08 RB Rocket - Pass Details

Date: 18 September 2020
Orbit: 646 x 684 km, 97.8° (Epoch: 27 October)

Event Time Altitude Azimuth Distance (km) Brightness Sun altitude
Exits shadow 17:54:34 -1° 139° (SE) 3,086 6.7 -6.0°
Rises 17:54:45 0° 139° (SE) 3,019 6.6 -6.0°
Reaches altitude 10° 17:57:08 10° 130° (SE) 2,103 5.8 -6.4°
Maximum altitude 18:01:14 33° 67° (ENE) 1,121 4.5 -7.1°
Drops below altitude 10° 18:05:20 10° 3° (N) 2,096 6.4 -7.7°
Sets 18:07:43 0° 354° (N) 3,006 7.3 -8.1°
